Location: Fort Collins
(40.5850°N, 105.0840°W)
Time: 01:59:40
(UTC-06:00)

Daily predictions for brighter satellites

Satellite Brightness Start Highest point End
(mag) Time Altitude Azimuth Time Altitude Azimuth Time Altitude Azimuth
Cosmos 1655 Rocket 3.9 00:07:26 65° SE 00:08:07 71° E 00:14:22 10° NNE
Cosmos 1707 3.9 00:10:40 43° N 00:10:40 43° N 00:13:23 10° N
CZ-4C R/B 2.6 00:12:00 49° E 00:12:00 49° E 00:16:51 10° NE
Cosmos 2082 Rocket 4.0 00:14:28 19° E 00:14:28 19° E 00:17:21 10° NE
H-2A R/B 3.7 00:13:44 10° NNE 00:16:03 34° NNE 00:16:03 34° NNE
H-2A R/B 4.1 00:18:56 15° W 00:19:37 15° W 00:22:31 10° NW
Cosmos 1076 Rocket 4.4 00:22:58 44° NNE 00:22:58 44° NNE 00:25:59 10° NNE
Cosmos 2221 3.2 00:18:22 10° N 00:21:43 53° NNW 00:21:43 53° NNW
Cosmos 1943 Rocket 3.6 00:23:33 10° NW 00:27:52 24° W 00:27:52 24° W
BREEZE-M TANK 4.5 00:05:48 10° SW 00:28:46 51° SSE 00:33:34 10° ENE
Meteor 1-24 Rocket 3.7 00:31:06 80° S 00:31:28 88° ESE 00:37:26 10° N
Cosmos 2026 Rocket 3.9 00:34:20 63° WSW 00:35:03 69° W 00:41:06 10° N
Cosmos 2228 Rocket 3.9 00:32:20 10° N 00:35:46 45° NE 00:35:46 45° NE
CENTAUR R/B 4.3 00:37:39 17° E 00:37:39 17° E 00:40:51 10° ENE
NOSS 3-2 (C) 3.3 00:39:23 76° SSE 00:39:46 81° ESE 00:46:25 10° NE
Cosmos 468 Rocket 4.1 00:48:43 10° NNW 00:53:28 68° WNW 00:53:28 68° WNW
CZ-2C R/B 3.1 00:52:28 10° NNE 00:57:38 51° E 00:57:38 51° E
ALOS 2 3.8 01:01:02 35° WNW 01:01:02 35° WNW 01:04:04 10° NNW
Cosmos 1814 Rocket 4.1 00:55:09 10° NNW 00:59:57 70° WNW 00:59:57 70° WNW
ISS 0.2 01:01:09 10° NNW 01:02:28 12° N 01:03:48 10° NNE
Meteor 1-21 Rocket 4.2 01:06:48 69° E 01:06:52 69° E 01:12:31 10° NNE
In-Cosmos 22 4.1 01:08:16 79° E 01:08:16 79° E 01:13:51 10° NNE
Cosmos 883 Rocket 4.5 01:03:58 10° N 01:10:20 73° E 01:11:06 65° SE
Cosmos 1486 Rocket 4.2 01:14:20 61° WNW 01:14:20 61° WNW 01:19:25 10° NNE
Cosmos 2369 3.6 01:09:26 10° NNW 01:14:57 79° W 01:14:57 79° W
Cosmos 724 4.4 01:15:39 61° ESE 01:15:39 61° ESE 01:21:09 10° NE
Meteor 2-2 Rocket 4.3 01:11:20 10° N 01:17:03 70° E 01:17:27 68° ESE
Cosmos 1553 Rocket 4.4 01:15:00 10° NNW 01:21:02 48° W 01:21:33 47° WSW
Cosmos 1818 3.8 01:15:49 10° NW 01:20:33 61° WNW 01:20:33 61° WNW
CZ-4B R/B 4.2 01:25:00 14° NW 01:25:00 14° NW 01:25:54 10° NW
NOSS 3-2 (A) 4.3 01:22:02 31° W 01:24:28 45° NW 01:30:53 10° NNE
Helios 1A Rocket 4.4 01:22:45 10° N 01:25:40 31° NW 01:25:40 31° NW
Lacrosse 5 rocket 4.5 01:25:12 10° NNW 01:27:46 15° NNE 01:30:22 10° ENE
Meteor 2-20 Rocket 4.3 01:28:25 75° SSW 01:28:58 87° W 01:35:11 10° N
Cosmos 2344 3.6 01:27:26 54° SSW 01:29:35 88° ESE 01:38:21 10° NE
Cosmos 1151 Rocket 3.7 01:26:50 10° N 01:30:09 51° NNE 01:30:09 51° NNE
Cosmos 2151 3.9 01:34:33 45° NE 01:34:33 45° NE 01:37:49 10° NNE
Cosmos 1763 Rocket 3.6 01:29:53 10° NNW 01:34:40 64° WNW 01:34:40 64° WNW
Cosmos 2278 4.3 01:32:25 10° NW 01:37:03 42° W 01:37:03 42° W
Cosmos 1980 Rocket 3.3 01:32:52 10° N 01:38:08 39° ENE 01:40:33 26° ESE
Cosmos 540 Rocket 4.4 01:34:08 10° N 01:39:02 42° ENE 01:40:10 37° E
Cosmos 2315 Rocket 3.9 01:33:45 10° N 01:40:07 87° E 01:40:59 68° SSE
Cosmos 1300 4.4 01:41:56 10° NNE 01:44:50 28° ENE 01:44:50 28° ENE
Cosmos 1437 Rocket 3.9 01:41:43 10° N 01:44:24 42° N 01:44:24 42° N
Cosmos 1441 Rocket 4.3 01:48:17 44° N 01:48:17 44° N 01:51:05 10° N
Cosmos 2266 Rocket 4.3 01:47:05 48° WSW 01:48:02 52° WNW 01:54:18 10° N
Lacrosse 5 2.6 01:46:27 10° NW 01:51:22 49° NE 01:54:01 25° ESE
USA 215 3.7 01:46:45 10° ENE 01:52:52 42° SE 01:53:19 41° SE
Sich 1 4.2 01:53:31 34° E 01:53:31 34° E 01:57:21 10° NNE
Cosmos 1867 4.4 01:54:30 38° W 01:55:37 43° NW 02:00:50 10° NNE
Cosmos 2082 Rocket 2.5 01:56:18 52° W 01:56:59 56° WNW 02:02:34 10° NNE
Cosmos 1697 Rocket 2.5 01:53:05 10° NNW 01:58:47 89° WSW 01:59:19 74° SSE
CZ-4C R/B 3.9 01:57:08 18° W 02:00:02 27° NW 02:05:11 10° NNE
Cosmos 1833 Rocket 2.8 02:05:18 56° W 02:05:59 61° WNW 02:11:35 10° NNE
USA 32 3.9 02:02:36 10° N 02:07:51 76° W 02:08:01 75° WSW
CZ-2C R/B 3.4 02:11:20 53° W 02:11:23 53° W 02:16:57 10° NNW
PSLV R/B 3.8 02:09:25 10° NNE 02:13:54 67° E 02:13:54 67° E
H-2A R/B 3.5 02:14:58 29° SE 02:14:58 29° SE 02:23:33 10° E
ATLAS 5 CENTAUR R/B 4.1 02:13:59 12° ESE 02:14:34 12° ESE 02:16:27 10° E
Cosmos 1726 3.2 02:11:21 10° N 02:14:20 43° NE 02:14:20 43° NE
Cosmos 1674 4.3 02:16:20 26° NW 02:16:20 26° NW 02:18:37 10° NNW
Landsat 4 4.3 02:18:46 53° N 02:18:46 53° N 02:21:46 10° N
Cosmos 968 Rocket 3.9 02:19:20 47° SE 02:19:54 49° ESE 02:24:50 10° NNE
Meteor 2-11 Rocket 4.4 02:17:58 10° NNW 02:24:03 67° W 02:25:10 56° SW
CENTAUR R/B 2.5 02:24:49 52° SW 02:26:27 77° NW 02:33:20 10° NNE
Cosmos 1656 4.4 02:24:57 10° NW 02:29:39 36° W 02:29:39 36° W
Aureole 1 Rocket 3.8 02:28:04 10° NNW 02:32:44 53° WSW 02:32:51 53° WSW
Meteor 1-27 4.2 02:27:35 10° NNW 02:33:27 78° W 02:34:43 56° SSW
SL-14 R/B 3.5 02:34:37 64° N 02:34:37 64° N 02:37:56 10° N
IRS-P3 4.2 02:29:43 10° NNE 02:35:03 69° ESE 02:36:14 52° SSE
Cosmos 1626 3.9 02:34:40 23° ESE 02:35:07 24° E 02:38:11 10° NE
AQUA 4.5 02:31:22 10° NNE 02:35:57 46° E 02:36:55 40° SE
CZ-2C R/B 4.3 02:33:35 10° NNW 02:37:43 22° WNW 02:39:10 20° W
SL-08 R/B 4.4 02:37:47 51° SW 02:39:14 67° W 02:45:20 10° N
ISS -0.5 02:37:26 10° NNW 02:39:54 19° NNE 02:42:21 10° ENE
SL-16 R/B 3.1 02:34:30 10° NNW 02:39:58 46° ENE 02:45:24 10° SE
Cosmos 1538 Rocket 4.0 02:36:21 10° NNW 02:41:35 77° ENE 02:43:29 40° SSE
Cosmos 1805 Rocket 4.3 02:42:29 40° WNW 02:42:29 40° WNW 02:46:34 10° N
ASTEX 1 4.2 02:38:21 10° NNW 02:42:53 36° WNW 02:43:15 36° W
Cosmos 2242 Rocket 3.4 02:38:58 10° N 02:43:23 81° W 02:43:32 79° SW
Cosmos 1703 3.2 02:46:29 78° E 02:46:29 78° E 02:50:27 10° N
OAO 3 Rocket 4.1 02:51:09 31° SE 02:51:09 31° SE 02:54:07 10° ESE
Cosmos 1633 Rocket 3.2 02:50:26 54° W 02:50:35 55° W 02:54:57 10° N
Cosmos 2322 Rocket 2.6 02:46:45 10° NNW 02:52:21 63° ENE 02:57:05 14° SE
Cosmos 1777 Rocket 4.2 02:54:46 44° S 02:56:20 66° ESE 03:01:35 10° NNE
Cosmos 1271 Rocket 3.0 02:53:11 10° N 02:56:56 60° E 02:57:29 52° ESE
Cosmos 332 Rocket 4.1 02:54:39 10° NNW 02:59:14 47° WSW 02:59:14 47° WSW
Cosmos 1666 Rocket 4.4 02:59:24 35° W 02:59:28 35° WNW 03:03:26 10° N
Cosmos 773 Rocket 4.2 02:57:09 10° NNW 03:02:16 66° ENE 03:05:53 19° SSE
Cosmos 2058 4.5 03:03:23 23° WNW 03:03:23 23° WNW 03:06:39 10° NNW
CBERS-1 3.9 02:59:26 10° NNE 03:04:34 89° E 03:06:14 45° SSW
Lacrosse 5 rocket 2.0 03:03:27 10° NW 03:07:48 61° NE 03:12:17 10° SE
SL-08 R/B 3.3 03:06:42 47° S 03:08:01 71° WSW 03:12:55 10° NNW
Cosmos 1470 Rocket 3.5 03:09:07 55° SW 03:09:56 71° W 03:14:22 10° N
ARIANE 5 R/B 3.4 03:08:03 10° NNE 03:12:53 41° E 03:15:49 21° SSE
Cosmos 2292 Rocket 3.4 03:13:09 43° ESE 03:13:32 46° E 03:16:52 10° NNE
Cosmos 1933 Rocket 3.6 03:13:43 52° SW 03:14:32 65° W 03:18:55 10° N
ADEOS 3.5 03:11:57 10° NNE 03:17:12 83° ESE 03:19:29 35° S
ERS-2 3.0 03:14:14 10° N 03:17:38 35° WNW 03:17:48 35° WNW
Cosmos 1980 Rocket 3.0 03:17:10 10° NW 03:21:57 29° WSW 03:22:16 29° WSW
CZ-2D R/B 3.3 03:17:43 10° NNE 03:22:33 36° E 03:26:39 14° SSE
Cosmos 2360 Rocket 3.5 03:17:38 10° N 03:22:56 40° ENE 03:28:12 10° SE
USA 161 2.3 03:26:01 37° N 03:26:01 37° N 03:27:36 10° N
NPP 4.2 03:25:15 10° N 03:30:22 45° WNW 03:32:33 30° WSW
SL-16 R/B 3.0 03:25:04 10° SSE 03:31:12 62° ENE 03:37:22 10° N
Meteor 1-4 Rocket 3.0 03:29:04 10° NNW 03:32:40 43° W 03:32:59 42° WSW
Lacrosse 5 2.9 03:29:49 10° WNW 03:33:04 26° WSW 03:33:04 26° WSW
Okean 1-7 4.5 03:30:43 10° N 03:34:47 36° ENE 03:38:48 10° SE
USA 215 3.6 03:29:36 10° NE 03:35:58 58° NW 03:40:38 19° WSW
FALCON 9 R/B 2.8 03:42:33 12° SE 03:42:33 12° SE 03:42:46 10° SE
BREEZE-M DEB (TANK) 4.2 03:42:23 10° WNW 03:46:24 74° SSW 04:03:07 10° SE
Cosmos 1709 Rocket 4.3 03:43:51 26° SW 03:47:18 52° WNW 03:53:24 10° N
Okean O Rocket 3.5 03:43:48 10° NE 03:47:31 26° E 03:51:12 10° SSE
Cosmos 1455 2.9 03:44:52 10° NNW 03:48:19 34° W 03:48:57 32° WSW
Cosmos 2112 Rocket 3.9 03:43:51 10° NNW 03:49:04 89° WSW 03:54:14 10° SSE
Cosmos 1346 3.0 03:48:31 47° SSW 03:49:14 71° W 03:52:18 10° N
Cosmos 1862 Rocket 4.4 03:46:00 10° NNW 03:50:02 33° W 03:51:20 28° SW
ATLAS 5 CENTAUR R/B 1.9 03:55:32 25° SW 03:58:23 79° NW 04:03:39 10° NNE
Cosmos 304 Rocket 3.8 03:59:58 10° NNW 04:04:44 61° WSW 04:09:28 10° S
Cosmos 2221 Rocket 3.7 04:03:43 10° NNW 04:08:09 59° W 04:12:03 13° S
Cosmos 1833 4.3 04:04:22 20° SSW 04:08:30 73° WNW 04:14:15 10° NNE
COSMOS 2428 3.8 04:03:18 10° NNW 04:08:46 47° ENE 04:14:12 10° SE
Cosmos 1626 3.8 04:09:24 17° W 04:10:30 19° WNW 04:13:16 10° NNW
GENESIS II 4.3 04:06:36 10° NNW 04:10:44 89° ENE 04:14:46 10° SSE
UNKNOWN OBJECT B 2.7 04:09:14 10° NNE 04:13:04 84° ESE 04:16:20 14° S
Cosmos 1869 Rocket 3.7 04:12:14 19° SSW 04:15:17 56° W 04:19:39 10° N
Resurs 1-4 Rocket 2.1 04:10:09 10° N 04:15:28 72° WNW 04:20:06 14° SSW
ISS -3.5 04:13:25 10° NW 04:16:40 81° SW 04:19:54 10° SE
H-2A ROCKET BODY 3.1 04:18:26 16° SSW 04:18:26 16° SSW 04:20:14 10° SSE
Cosmos 2298 Rocket 4.0 04:16:25 14° SSW 04:21:00 84° WNW 04:26:22 10° NNE
SL-16 R/B 3.3 04:19:16 10° NW 04:23:44 24° WSW 04:27:28 13° SSW
ATLAS 2A CENTAUR R/B 4.4 04:17:51 15° SW 04:25:20 43° SSE 05:17:34 10° E
CZ-2C R/B 3.7 04:23:05 10° SSE 04:27:33 84° ENE 04:32:07 10° NNW
UNK 4.2 04:25:41 10° S 04:29:59 41° W 04:34:19 10° NNW
OAO 3 Rocket 3.7 04:28:58 12° WSW 04:32:51 38° S 04:37:13 10° ESE
Meteor 2-3 Rocket 3.8 04:28:19 10° S 04:34:05 85° W 04:39:56 10° N
SL-24 DEB 4.2 04:30:09 10° N 04:34:48 80° W 04:39:24 10° S
Cosmos 2322 Rocket 3.6 04:32:15 10° WNW 04:35:47 17° W 04:38:48 12° SW
ATLAS CENTAUR R/B 2.0 04:31:13 10° NNW 04:35:54 68° NE 04:40:11 10° SE
ASTRO F (AKARI) 4.4 04:32:54 10° S 04:36:08 54° WSW 04:39:16 10° NNW
Cosmos 1680 Rocket 4.4 04:32:02 10° NW 04:36:22 27° W 04:40:41 10° SSW
CZ-2D R/B 3.4 04:34:04 10° N 04:38:13 69° WNW 04:42:13 10° SSW
Coronas F rocket 3.9 04:37:58 10° SE 04:40:08 21° E 04:42:17 10° NE
USA 229 DEB 3.8 04:33:33 11° SW 04:40:14 85° NW 04:47:17 10° NNE
USA 229 3.8 04:33:38 11° SW 04:40:21 86° NW 04:47:23 10° NE
GPS 2-05 Rocket1 3.5 04:40:06 13° WSW 04:42:45 35° S 04:45:55 10° ESE
Cosmos 2341 Rocket 4.3 04:37:39 10° S 04:43:55 76° E 04:50:16 10° N
CZ-4B R/B 3.4 04:40:42 10° NNE 04:44:42 64° E 04:48:54 10° S
PSLV R/B 3.8 04:41:17 10° N 04:45:12 73° WNW 04:49:12 10° SSW
Cosmos 2219 Rocket 3.5 04:40:08 10° NNW 04:45:30 45° ENE 04:50:49 10° SE
Lacrosse 5 rocket 2.9 04:43:37 10° WNW 04:46:45 19° WSW 04:49:57 10° SSW
Cosmos 1733 Rocket 3.1 04:44:01 10° S 04:48:20 87° E 04:52:42 10° N
SME Rocket 4.0 04:41:46 10° S 04:48:37 56° WSW 04:53:17 10° NNW
ARIANE 5 R/B 3.9 04:47:46 10° NNW 04:51:44 23° WNW 04:55:38 10° WSW
IRS-1C Rocket 4.3 04:47:09 10° N 04:52:21 59° WNW 04:57:31 10° SSW
Thor Agena Rocket 3.6 04:47:24 10° S 04:52:40 71° WSW 04:57:57 10° NNW
Cosmos 220 Rocket 4.2 04:50:51 10° SSW 04:55:03 74° ESE 04:59:20 10° NNE
Cosmos 389 Rocket 2.6 04:52:21 10° NNW 04:56:00 62° W 04:59:38 10° S
Meteor 1-10 Rocket 4.5 04:50:43 10° N 04:56:25 79° E 05:02:14 10° SSE
Nadezhda 3 Rocket 4.0 04:51:48 10° NNW 04:57:55 71° W 05:04:01 10° S
Cosmos 1782 3.3 04:55:37 10° N 04:59:37 66° E 05:03:34 10° SSE
Sich 1 Rocket 3.9 04:55:37 10° S 04:59:57 70° E 05:04:20 10° NNE
Cosmos 2154 Rocket 4.1 04:54:26 10° SSW 05:00:42 65° W 05:07:02 10° N
CZ-2D R/B 3.2 04:58:05 10° N 05:02:28 28° WNW 05:06:53 10° WSW
Cosmos 1898 Rocket 4.2 05:01:44 10° SW 05:06:34 39° WNW 05:11:25 10° N
Cosmos 2360 Rocket 3.1 05:02:00 10° NW 05:06:42 28° WSW 05:11:23 10° SSW
SL-8 Rocket 4.4 05:01:31 10° S 05:07:37 68° E 05:13:50 10° NNE
